SHT15C EGJB-EGLL

Flight info

Callsign SHT15C
Flight time 0h 34m
Altitude 19000
Route ORIST1F ORIST L982 ROXOG ROXOG1H
Aircraft A320/M-SDE3FGIJ1KRWXY/SB1

Departure

Time 2026-04-26 12:29
Airport Guernsey Airport (EGJB)

Arrival

Time 2026-04-26 13:04
Airport London Heathrow Airport (EGLL)
Time Latitude Longitude Altitude Speed Heading
2026-04-26 12:01 49.43299 -2.59457 345 ft 0 kts 178°
2026-04-26 12:18 49.43308 -2.59457 344 ft 3 kts 178°
2026-04-26 12:19 49.43325 -2.59456 347 ft 3 kts 188°
2026-04-26 12:19 49.43343 -2.59451 355 ft 3 kts 204°
2026-04-26 12:19 49.43358 -2.59437 349 ft 3 kts 232°
2026-04-26 12:19 49.43367 -2.59414 353 ft 3 kts 256°
2026-04-26 12:20 49.43369 -2.59388 350 ft 2 kts 267°
2026-04-26 12:22 49.43369 -2.59389 350 ft 0 kts 267°
2026-04-26 12:23 49.43369 -2.59391 344 ft 1 kts 267°
2026-04-26 12:23 49.43368 -2.59417 344 ft 4 kts 267°
2026-04-26 12:23 49.43367 -2.59466 354 ft 6 kts 267°
2026-04-26 12:24 49.43365 -2.59538 351 ft 8 kts 268°
2026-04-26 12:24 49.43362 -2.59634 349 ft 10 kts 266°
2026-04-26 12:24 49.43354 -2.59737 349 ft 10 kts 257°
2026-04-26 12:25 49.43342 -2.59958 344 ft 12 kts 267°
2026-04-26 12:25 49.43338 -2.60110 347 ft 17 kts 267°
2026-04-26 12:25 49.43332 -2.60315 337 ft 22 kts 267°
2026-04-26 12:25 49.43325 -2.60532 328 ft 11 kts 269°
2026-04-26 12:26 49.43329 -2.60638 326 ft 11 kts 279°
2026-04-26 12:26 49.43347 -2.60777 326 ft 16 kts 281°
2026-04-26 12:26 49.43365 -2.60957 322 ft 16 kts 272°
2026-04-26 12:26 49.43359 -2.61120 318 ft 12 kts 263°
2026-04-26 12:27 49.43358 -2.61145 317 ft 0 kts 267°
2026-04-26 12:27 49.43358 -2.61176 317 ft 5 kts 269°
2026-04-26 12:27 49.43368 -2.61256 313 ft 10 kts 299°
2026-04-26 12:27 49.43419 -2.61340 313 ft 9 kts 326°
2026-04-26 12:28 49.43464 -2.61330 312 ft 5 kts 48°
2026-04-26 12:28 49.43467 -2.61297 314 ft 0 kts 88°
2026-04-26 12:28 49.43473 -2.61072 319 ft 63 kts 87°
2026-04-26 12:29 49.43504 -2.59975 346 ft 138 kts 88°
2026-04-26 12:29 49.43548 -2.58335 814 ft 163 kts 88°
2026-04-26 12:29 49.43648 -2.54569 2221 ft 196 kts 89°
2026-04-26 12:30 49.43707 -2.52371 2781 ft 213 kts 89°
2026-04-26 12:30 49.44024 -2.50122 3471 ft 222 kts 60°
2026-04-26 12:30 49.45167 -2.48548 4222 ft 228 kts 21°
2026-04-26 12:31 49.48246 -2.47315 5911 ft 232 kts 13°
2026-04-26 12:31 49.49896 -2.46707 6310 ft 256 kts 13°
2026-04-26 12:31 49.51695 -2.46042 6888 ft 271 kts 13°
2026-04-26 12:31 49.53552 -2.45350 7671 ft 277 kts 13°
2026-04-26 12:32 49.55443 -2.44642 8484 ft 282 kts 13°
2026-04-26 12:32 49.57367 -2.43912 9300 ft 287 kts 14°
2026-04-26 12:32 49.61321 -2.42393 10841 ft 297 kts 13°
2026-04-26 12:33 49.63343 -2.41619 11564 ft 302 kts 13°
2026-04-26 12:33 49.65393 -2.40832 12293 ft 306 kts 13°
2026-04-26 12:33 49.67476 -2.40030 13018 ft 310 kts 14°
2026-04-26 12:33 49.69506 -2.38819 13721 ft 316 kts 27°
2026-04-26 12:34 49.71332 -2.36895 14121 ft 332 kts 41°
2026-04-26 12:34 49.72945 -2.34176 14248 ft 355 kts 50°
2026-04-26 12:34 49.74568 -2.31172 14522 ft 370 kts 50°
2026-04-26 12:34 49.76240 -2.28096 15042 ft 376 kts 50°
2026-04-26 12:35 49.77937 -2.24990 15603 ft 381 kts 49°
2026-04-26 12:35 49.79666 -2.21843 16168 ft 385 kts 49°
2026-04-26 12:35 49.81411 -2.18666 16731 ft 389 kts 49°
2026-04-26 12:35 49.83172 -2.15459 17297 ft 393 kts 49°
2026-04-26 12:36 49.84952 -2.12208 17862 ft 398 kts 49°
2026-04-26 12:36 49.86749 -2.08913 18428 ft 402 kts 49°
2026-04-26 12:36 49.88563 -2.05591 18946 ft 406 kts 49°
2026-04-26 12:36 49.90394 -2.02231 19196 ft 408 kts 49°
2026-04-26 12:37 49.92231 -1.98851 19271 ft 416 kts 49°
2026-04-26 12:37 49.94120 -1.95370 19277 ft 422 kts 49°
2026-04-26 12:37 49.96019 -1.91866 19275 ft 423 kts 49°
2026-04-26 12:37 49.97921 -1.88360 19277 ft 424 kts 47°
2026-04-26 12:38 50.00027 -1.85185 19280 ft 422 kts 37°
2026-04-26 12:38 50.02436 -1.82601 19283 ft 420 kts 27°
2026-04-26 12:38 50.04996 -1.80540 19283 ft 419 kts 25°
2026-04-26 12:38 50.07603 -1.78488 19285 ft 419 kts 25°
2026-04-26 12:39 50.10198 -1.76438 19288 ft 419 kts 25°
2026-04-26 12:39 50.12722 -1.74155 19285 ft 421 kts 33°
2026-04-26 12:39 50.15018 -1.71311 19289 ft 422 kts 38°
2026-04-26 12:39 50.17277 -1.68375 19292 ft 422 kts 38°
2026-04-26 12:40 50.19532 -1.65445 19296 ft 422 kts 38°
2026-04-26 12:40 50.21792 -1.62510 19299 ft 422 kts 38°
2026-04-26 12:40 50.24049 -1.59580 19299 ft 422 kts 38°
2026-04-26 12:40 50.26455 -1.56987 19304 ft 420 kts 27°
2026-04-26 12:41 50.29097 -1.55069 19305 ft 417 kts 17°
2026-04-26 12:41 50.31861 -1.53689 19305 ft 416 kts 15°
2026-04-26 12:41 50.34627 -1.52337 19307 ft 417 kts 15°
2026-04-26 12:41 50.37391 -1.50980 19309 ft 417 kts 15°
2026-04-26 12:42 50.40158 -1.49615 19312 ft 417 kts 15°
2026-04-26 12:42 50.42926 -1.48250 19310 ft 417 kts 15°
2026-04-26 12:42 50.45701 -1.46885 19318 ft 417 kts 15°
2026-04-26 12:42 50.48470 -1.45521 19316 ft 417 kts 15°
2026-04-26 12:43 50.51236 -1.44155 19318 ft 417 kts 15°
2026-04-26 12:43 50.53973 -1.42620 19318 ft 418 kts 22°
2026-04-26 12:43 50.56557 -1.40498 19315 ft 419 kts 27°
2026-04-26 12:43 50.59118 -1.38285 19321 ft 420 kts 27°
2026-04-26 12:44 50.61680 -1.36091 19323 ft 420 kts 27°
2026-04-26 12:44 50.64253 -1.33889 19324 ft 420 kts 27°
2026-04-26 12:44 50.66817 -1.31690 19324 ft 420 kts 27°
2026-04-26 12:44 50.69386 -1.29481 19320 ft 420 kts 27°
2026-04-26 12:45 50.71952 -1.27267 19319 ft 419 kts 27°
2026-04-26 12:45 50.74468 -1.25094 19347 ft 404 kts 27°
2026-04-26 12:45 50.76888 -1.22973 19153 ft 392 kts 29°
2026-04-26 12:45 50.79218 -1.20752 18607 ft 392 kts 31°
2026-04-26 12:46 50.81507 -1.18406 17913 ft 394 kts 33°
2026-04-26 12:46 50.83793 -1.15973 17219 ft 395 kts 33°
2026-04-26 12:46 50.86068 -1.13529 16554 ft 396 kts 33°
2026-04-26 12:46 50.88355 -1.11092 15888 ft 396 kts 33°
2026-04-26 12:47 50.90650 -1.08676 15242 ft 396 kts 33°
2026-04-26 12:47 50.92952 -1.06279 14616 ft 395 kts 32°
2026-04-26 12:47 50.95253 -1.03898 13971 ft 394 kts 32°
2026-04-26 12:47 50.97537 -1.01541 13438 ft 388 kts 32°
2026-04-26 12:48 50.99747 -0.99219 13276 ft 373 kts 36°
2026-04-26 12:48 51.01634 -0.96510 13153 ft 359 kts 47°
2026-04-26 12:48 51.03260 -0.93618 12821 ft 353 kts 48°
2026-04-26 12:48 51.04889 -0.90720 12412 ft 349 kts 48°
2026-04-26 12:49 51.06502 -0.87850 12004 ft 346 kts 48°
2026-04-26 12:49 51.08100 -0.85003 11609 ft 344 kts 48°
2026-04-26 12:49 51.09686 -0.82172 11205 ft 340 kts 48°
2026-04-26 12:49 51.11255 -0.79368 10802 ft 338 kts 48°
2026-04-26 12:50 51.12816 -0.76576 10448 ft 336 kts 49°
2026-04-26 12:50 51.14365 -0.73801 10036 ft 335 kts 49°
2026-04-26 12:50 51.15908 -0.71033 9610 ft 333 kts 48°
2026-04-26 12:50 51.17442 -0.68275 9189 ft 331 kts 49°
2026-04-26 12:51 51.18968 -0.65531 8775 ft 331 kts 49°
2026-04-26 12:51 51.20490 -0.62797 8373 ft 328 kts 49°
2026-04-26 12:51 51.22002 -0.60076 7971 ft 326 kts 49°
2026-04-26 12:51 51.23500 -0.57375 7568 ft 324 kts 49°
2026-04-26 12:52 51.24981 -0.54700 7324 ft 315 kts 49°
2026-04-26 12:52 51.26401 -0.52227 7307 ft 288 kts 41°
2026-04-26 12:52 51.28067 -0.50777 7311 ft 263 kts 13°
2026-04-26 12:52 51.29816 -0.50722 7325 ft 248 kts 346°
2026-04-26 12:53 51.31353 -0.51891 7236 ft 246 kts 320°
2026-04-26 12:53 51.32405 -0.54027 6752 ft 247 kts 292°
2026-04-26 12:53 51.32952 -0.56637 6218 ft 248 kts 286°
2026-04-26 12:53 51.33472 -0.59279 5684 ft 249 kts 286°
2026-04-26 12:54 51.33997 -0.61928 5243 ft 250 kts 285°
2026-04-26 12:54 51.34522 -0.64557 4729 ft 248 kts 287°
2026-04-26 12:54 51.35050 -0.67185 4264 ft 249 kts 287°
2026-04-26 12:54 51.35576 -0.69796 4070 ft 241 kts 287°
2026-04-26 12:55 51.36119 -0.72325 3617 ft 243 kts 293°
2026-04-26 12:55 51.37083 -0.74543 3110 ft 244 kts 317°
2026-04-26 12:55 51.38371 -0.76241 2989 ft 234 kts 319°
2026-04-26 12:55 51.39481 -0.77990 3003 ft 222 kts 308°
2026-04-26 12:56 51.40352 -0.79940 2993 ft 209 kts 301°
2026-04-26 12:56 51.41113 -0.81857 2984 ft 199 kts 301°
2026-04-26 12:56 51.41853 -0.83752 3006 ft 198 kts 301°
2026-04-26 12:56 51.42583 -0.85622 3014 ft 198 kts 301°
2026-04-26 12:57 51.43311 -0.87462 3003 ft 196 kts 306°
2026-04-26 12:57 51.44394 -0.88793 2995 ft 195 kts 345°
2026-04-26 12:57 51.45711 -0.88911 2863 ft 195 kts 16°
2026-04-26 12:58 51.47490 -0.86046 2549 ft 184 kts 82°
2026-04-26 12:58 51.47550 -0.83956 2489 ft 186 kts 94°
2026-04-26 12:58 51.47564 -0.81916 2494 ft 183 kts 91°
2026-04-26 12:58 51.47578 -0.79955 2533 ft 167 kts 92°
2026-04-26 12:59 51.47589 -0.78155 2493 ft 156 kts 91°
2026-04-26 12:59 51.47601 -0.76455 2521 ft 152 kts 91°
2026-04-26 12:59 51.47611 -0.74767 2494 ft 148 kts 90°
2026-04-26 12:59 51.47621 -0.73097 2485 ft 150 kts 90°
2026-04-26 13:00 51.47632 -0.71473 2494 ft 140 kts 91°
2026-04-26 13:00 51.47641 -0.69920 2511 ft 138 kts 92°
2026-04-26 13:00 51.47651 -0.68387 2455 ft 136 kts 89°
2026-04-26 13:00 51.47659 -0.66868 2333 ft 136 kts 92°
2026-04-26 13:01 51.47667 -0.65353 2199 ft 137 kts 92°
2026-04-26 13:01 51.47675 -0.63833 2008 ft 134 kts 92°
2026-04-26 13:01 51.47684 -0.62353 1827 ft 132 kts 91°
2026-04-26 13:01 51.47691 -0.60883 1660 ft 131 kts 92°
2026-04-26 13:02 51.47699 -0.59402 1491 ft 133 kts 91°
2026-04-26 13:02 51.47706 -0.57929 1293 ft 131 kts 90°
2026-04-26 13:02 51.47711 -0.56950 1208 ft 133 kts 90°
2026-04-26 13:02 51.47717 -0.55467 1006 ft 135 kts 90°
2026-04-26 13:03 51.47724 -0.53955 817 ft 136 kts 91°
2026-04-26 13:03 51.47731 -0.52440 623 ft 134 kts 90°
2026-04-26 13:03 51.47738 -0.50949 441 ft 134 kts 89°
2026-04-26 13:03 51.47744 -0.49468 259 ft 133 kts 89°
2026-04-26 13:04 51.47749 -0.47983 89 ft 132 kts 90°
2026-04-26 13:04 51.47755 -0.46908 90 ft 68 kts 89°
2026-04-26 13:04 51.47758 -0.46324 91 ft 46 kts 90°
2026-04-26 13:04 51.47669 -0.46108 86 ft 12 kts 145°
2026-04-26 13:05 51.47658 -0.46097 89 ft 0 kts 147°
2026-04-26 13:05 51.47655 -0.46094 90 ft 1 kts 148°
2026-04-26 13:05 51.47647 -0.46088 88 ft 1 kts 156°
2026-04-26 13:05 51.47638 -0.46084 91 ft 1 kts 167°
2026-04-26 13:06 51.47621 -0.46087 87 ft 5 kts 195°
2026-04-26 13:06 51.47599 -0.46132 88 ft 5 kts 251°
2026-04-26 13:06 51.47594 -0.46234 87 ft 13 kts 269°
2026-04-26 13:06 51.47593 -0.46378 87 ft 13 kts 269°
2026-04-26 13:07 51.47592 -0.46524 87 ft 13 kts 269°
2026-04-26 13:07 51.47590 -0.46677 87 ft 14 kts 269°
2026-04-26 13:07 51.47588 -0.46837 87 ft 15 kts 265°
2026-04-26 13:07 51.47582 -0.47004 87 ft 15 kts 269°
2026-04-26 13:08 51.47580 -0.47180 89 ft 16 kts 268°
2026-04-26 13:08 51.47582 -0.47364 88 ft 17 kts 270°
2026-04-26 13:08 51.47580 -0.47553 90 ft 18 kts 269°
2026-04-26 13:08 51.47579 -0.47753 90 ft 18 kts 269°
2026-04-26 13:09 51.47578 -0.47962 90 ft 19 kts 270°
2026-04-26 13:09 51.47577 -0.48175 87 ft 18 kts 270°
2026-04-26 13:09 51.47578 -0.48322 87 ft 8 kts 271°
2026-04-26 13:09 51.47575 -0.48409 89 ft 8 kts 257°
2026-04-26 13:10 51.47536 -0.48470 88 ft 9 kts 201°
2026-04-26 13:10 51.47491 -0.48530 89 ft 9 kts 246°
2026-04-26 13:10 51.47486 -0.48629 89 ft 9 kts 269°
2026-04-26 13:10 51.47486 -0.48735 88 ft 10 kts 270°
2026-04-26 13:11 51.47487 -0.48834 88 ft 7 kts 276°
2026-04-26 13:11 51.47472 -0.48881 89 ft 5 kts 199°
2026-04-26 13:11 51.47460 -0.48888 87 ft 2 kts 200°
2026-04-26 13:11 51.47445 -0.48893 89 ft 2 kts 186°
2026-04-26 13:12 51.47428 -0.48893 87 ft 2 kts 180°
2026-04-26 13:12 51.47410 -0.48893 87 ft 0 kts 180°